| time (UTC) | temp C | wind direction | speed KPH | gust KPH | rain 1hr cm | rain 24hr cm | rain mn cm | humidity % | barometer mb |
| 20260903211722 | 33 | 230 | 3.2 | 11.3 | 0.00 | 0.00 | 0.00 | 65 | 1009.6 |
| 20260903211216 | 33 | 221 | 3.2 | 11.3 | 0.00 | 0.00 | 0.00 | 64 | 1009.7 |
| 20260903210710 | 33 | 109 | 3.2 | 8.0 | 0.00 | 0.00 | 0.00 | 65 | 1009.7 |
| 20260903210204 | 33 | 119 | 3.2 | 11.3 | 0.00 | 0.00 | 0.00 | 65 | 1009.7 |
| 20260903205653 | 33 | 111 | 3.2 | 11.3 | 0.00 | 0.00 | 0.00 | 64 | 1009.8 |
| 20260903205151 | 33 | 125 | 3.2 | 8.0 | 0.00 | 0.00 | 0.00 | 65 | 1009.8 |
| 20260903204647 | 33 | 150 | 3.2 | 8.0 | 0.00 | 0.00 | 0.00 | 66 | 1009.8 |
| 20260903204140 | 33 | 113 | 3.2 | 11.3 | 0.00 | 0.00 | 0.00 | 65 | 1010.0 |
| 20260903203854 | 32 | 110 | 3.2 | 11.3 | 0.00 | 0.00 | 0.00 | 66 | 1010.0 |
| 20260903203128 | 32 | 115 | 4.8 | 12.9 | 0.00 | 0.00 | 0.00 | 66 | 1010.0 |
| 20260903202623 | 32 | 55 | 4.8 | 12.9 | 0.00 | 0.00 | 0.00 | 66 | 1010.1 |
| 20260903202112 | 32 | 126 | 4.8 | 12.9 | 0.00 | 0.00 | 0.00 | 66 | 1010.1 |
| 20260903201611 | 32 | 111 | 3.2 | 12.9 | 0.00 | 0.00 | 0.00 | 65 | 1010.1 |
| 20260903201105 | 32 | 121 | 1.6 | 11.3 | 0.00 | 0.00 | 0.00 | 65 | 1010.1 |
| 20260903200830 | 32 | 76 | 3.2 | 12.9 | 0.00 | 0.00 | 0.00 | 65 | 1010.1 |
| 20260903200051 | 32 | 71 | 6.4 | 14.5 | 0.00 | 0.00 | 0.00 | 65 | 1010.1 |
| 20260903195804 | 33 | 96 | 4.8 | 14.5 | 0.00 | 0.00 | 0.00 | 64 | 1010.2 |
| 20260903195039 | 33 | 71 | 1.6 | 14.5 | 0.00 | 0.00 | 0.00 | 64 | 1010.2 |
| 20260903194533 | 33 | 140 | 1.6 | 4.8 | 0.00 | 0.00 | 0.00 | 64 | 1010.2 |
| 20260903194253 | 33 | 146 | 0.0 | 4.8 | 0.00 | 0.00 | 0.00 | 64 | 1010.4 |
| 20260903193746 | 33 | 15 | 0.0 | 4.8 | 0.00 | 0.00 | 0.00 | 63 | 1010.4 |
| 20260903193024 | 33 | 64 | 1.6 | 6.4 | 0.00 | 0.00 | 0.00 | 65 | 1010.4 |
| 20260903192525 | 32 | 131 | 3.2 | 8.0 | 0.00 | 0.00 | 0.00 | 65 | 1010.8 |
| 20260903192022 | 32 | 104 | 3.2 | 11.3 | 0.00 | 0.00 | 0.00 | 65 | 1010.8 |
| 20260903191522 | 32 | 14 | 4.8 | 12.9 | 0.00 | 0.00 | 0.00 | 66 | 1010.8 |
| 20260903191020 | 32 | 60 | 4.8 | 12.9 | 0.00 | 0.00 | 0.00 | 65 | 1010.9 |
| 20260903190520 | 32 | 81 | 3.2 | 12.9 | 0.00 | 0.00 | 0.00 | 65 | 1010.9 |
| 20260903190244 | 32 | 41 | 4.8 | 12.9 | 0.00 | 0.00 | 0.00 | 65 | 1010.9 |
| 20260903185958 | 32 | 17 | 4.8 | 11.3 | 0.00 | 0.00 | 0.00 | 66 | 1010.9 |
| 20260903185023 | 32 | 119 | 6.4 | 14.5 | 0.00 | 0.00 | 0.00 | 67 | 1010.9 |
| 20260903184744 | 32 | 289 | 6.4 | 14.5 | 0.00 | 0.00 | 0.00 | 67 | 1010.9 |
| 20260903184018 | 32 | 44 | 4.8 | 14.5 | 0.00 | 0.00 | 0.00 | 67 | 1011.0 |
| 20260903183506 | 31 | 71 | 4.8 | 14.5 | 0.00 | 0.00 | 0.00 | 67 | 1011.0 |
| 20260903182954 | 31 | 341 | 4.8 | 14.5 | 0.00 | 0.00 | 0.00 | 66 | 1011.3 |
| 20260903182443 | 31 | 28 | 6.4 | 12.9 | 0.00 | 0.00 | 0.00 | 68 | 1011.3 |
| 20260903181931 | 31 | 0 | 6.4 | 12.9 | 0.00 | 0.00 | 0.00 | 66 | 1011.3 |
| 20260903181644 | 31 | 70 | 8.0 | 17.7 | 0.00 | 0.00 | 0.00 | 67 | 1011.3 |
| 20260903180920 | 31 | 27 | 9.7 | 17.7 | 0.00 | 0.00 | 0.00 | 68 | 1011.3 |
| 20260903180415 | 31 | 355 | 9.7 | 19.3 | 0.00 | 0.00 | 0.00 | 68 | 1011.3 |
| 20260903175908 | 31 | 348 | 9.7 | 19.3 | 0.00 | 0.00 | 0.00 | 68 | 1011.3 |
| 20260903175404 | 31 | 33 | 9.7 | 19.3 | 0.00 | 0.00 | 0.00 | 68 | 1011.3 |
| 20260903174856 | 32 | 36 | 9.7 | 19.3 | 0.00 | 0.00 | 0.00 | 67 | 1011.3 |
| 20260903174612 | 32 | 355 | 8.0 | 16.1 | 0.00 | 0.00 | 0.00 | 67 | 1011.3 |
| 20260903173839 | 32 | 336 | 4.8 | 14.5 | 0.00 | 0.00 | 0.00 | 66 | 1011.3 |
| 20260903173337 | 32 | 311 | 4.8 | 12.9 | 0.00 | 0.00 | 0.00 | 65 | 1011.3 |
| 20260903172831 | 32 | 221 | 6.4 | 12.9 | 0.00 | 0.00 | 0.00 | 66 | 1011.4 |
| 20260903172325 | 32 | 252 | 6.4 | 14.5 | 0.00 | 0.00 | 0.00 | 65 | 1011.4 |
| 20260903171819 | 32 | 130 | 6.4 | 14.5 | 0.00 | 0.00 | 0.00 | 66 | 1011.4 |
| 20260903171531 | 32 | 9 | 8.0 | 19.3 | 0.00 | 0.00 | 0.00 | 66 | 1011.3 |
| 20260903170807 | 32 | 41 | 6.4 | 19.3 | 0.00 | 0.00 | 0.00 | 65 | 1011.3 |
| 20260903170303 | 32 | 344 | 4.8 | 12.9 | 0.00 | 0.00 | 0.00 | 67 | 1011.3 |
| 20260903165755 | 32 | 5 | 6.4 | 14.5 | 0.00 | 0.00 | 0.00 | 67 | 1010.9 |
| 20260903164738 | 31 | 283 | 8.0 | 16.1 | 0.00 | 0.00 | 0.00 | 67 | 1010.9 |
| 20260903164237 | 31 | 188 | 8.0 | 16.1 | 0.00 | 0.00 | 0.00 | 69 | 1010.8 |
| 20260903164205 | 31 | 235 | 8.0 | 14.5 | 0.00 | 0.00 | 0.00 | 68 | 1010.8 |
| 20260903163224 | 31 | 201 | 6.4 | 14.5 | 0.00 | 0.00 | 0.00 | 68 | 1010.8 |
| 20260903162720 | 31 | 205 | 4.8 | 11.3 | 0.00 | 0.00 | 0.00 | 69 | 1010.9 |
| 20260903162215 | 31 | 242 | 6.4 | 14.5 | 0.00 | 0.00 | 0.00 | 69 | 1010.9 |
| 20260903161709 | 31 | 213 | 6.4 | 14.5 | 0.00 | 0.00 | 0.00 | 70 | 1010.9 |
| 20260903161156 | 31 | 190 | 6.4 | 17.7 | 0.00 | 0.00 | 0.00 | 70 | 1010.8 |
| 20260903160656 | 31 | 226 | 6.4 | 17.7 | 0.00 | 0.00 | 0.00 | 69 | 1010.8 |
| 20260903160146 | 31 | 221 | 4.8 | 12.9 | 0.00 | 0.00 | 0.00 | 70 | 1010.8 |
| 20260903155643 | 30 | 227 | 6.4 | 14.5 | 0.00 | 0.00 | 0.00 | 71 | 1010.8 |
| 20260903155353 | 30 | 236 | 6.4 | 14.5 | 0.00 | 0.00 | 0.00 | 70 | 1010.8 |
| 20260903154627 | 30 | 222 | 6.4 | 16.1 | 0.00 | 0.00 | 0.00 | 70 | 1010.8 |
| 20260903154353 | 30 | 236 | 6.4 | 16.1 | 0.00 | 0.00 | 0.00 | 71 | 1010.9 |
| 20260903153618 | 30 | 198 | 6.4 | 14.5 | 0.00 | 0.00 | 0.00 | 72 | 1010.9 |
| 20260903153558 | 30 | 244 | 6.4 | 14.5 | 0.00 | 0.00 | 0.00 | 73 | 1010.9 |
| 20260903152837 | 30 | 213 | 6.4 | 16.1 | 0.00 | 0.00 | 0.00 | 73 | 1010.9 |
| 20260903152324 | 29 | 242 | 8.0 | 16.1 | 0.00 | 0.00 | 0.00 | 73 | 1010.9 |
| 20260903151555 | 29 | 254 | 8.0 | 17.7 | 0.00 | 0.00 | 0.00 | 73 | 1010.9 |
| 20260903151045 | 29 | 257 | 8.0 | 17.7 | 0.00 | 0.00 | 0.00 | 73 | 1010.9 |
| 20260903150543 | 29 | 230 | 8.0 | 16.1 | 0.00 | 0.00 | 0.00 | 74 | 1010.9 |
| 20260903150036 | 29 | 238 | 6.4 | 16.1 | 0.00 | 0.00 | 0.00 | 75 | 1010.9 |
| 20260903145530 | 28 | 173 | 4.8 | 11.3 | 0.00 | 0.00 | 0.00 | 75 | 1010.9 |
| 20260903145249 | 28 | 232 | 6.4 | 12.9 | 0.00 | 0.00 | 0.00 | 75 | 1010.9 |
| 20260903144516 | 28 | 248 | 6.4 | 12.9 | 0.00 | 0.00 | 0.00 | 76 | 1010.9 |
| 20260903144006 | 28 | 231 | 6.4 | 14.5 | 0.00 | 0.00 | 0.00 | 75 | 1010.9 |
| 20260903143454 | 28 | 290 | 6.4 | 14.5 | 0.00 | 0.00 | 0.00 | 75 | 1010.9 |
| 20260903142942 | 28 | 258 | 8.0 | 12.9 | 0.00 | 0.00 | 0.00 | 76 | 1010.8 |
| 20260903142508 | 28 | 198 | 8.0 | 14.5 | 0.00 | 0.00 | 0.00 | 76 | 1010.8 |
| 20260903141847 | 27 | 227 | 8.0 | 14.5 | 0.00 | 0.00 | 0.00 | 77 | 1010.8 |
| 20260903141117 | 27 | 212 | 8.0 | 14.5 | 0.00 | 0.00 | 0.00 | 78 | 1010.8 |
| 20260903140341 | 27 | 221 | 6.4 | 14.5 | 0.00 | 0.00 | 0.00 | 78 | 1010.8 |
| 20260903135828 | 27 | 232 | 6.4 | 12.9 | 0.00 | 0.00 | 0.00 | 80 | 1010.8 |
| 20260903135316 | 27 | 240 | 6.4 | 12.9 | 0.00 | 0.00 | 0.00 | 80 | 1010.8 |
| 20260903134811 | 26 | 195 | 4.8 | 12.9 | 0.00 | 0.00 | 0.00 | 81 | 1010.8 |
| 20260903134306 | 26 | 207 | 6.4 | 16.1 | 0.00 | 0.00 | 0.00 | 81 | 1010.8 |
| 20260903133755 | 26 | 225 | 8.0 | 16.1 | 0.00 | 0.00 | 0.00 | 82 | 1010.8 |
| 20260903133252 | 26 | 246 | 6.4 | 16.1 | 0.00 | 0.00 | 0.00 | 82 | 1010.8 |
| 20260903132746 | 26 | 196 | 6.4 | 16.1 | 0.00 | 0.00 | 0.00 | 83 | 1010.9 |
| 20260903132459 | 25 | 181 | 6.4 | 14.5 | 0.00 | 0.00 | 0.00 | 83 | 1010.9 |
| 20260903131956 | 25 | 244 | 4.8 | 14.5 | 0.00 | 0.00 | 0.00 | 84 | 1010.9 |
| 20260903131452 | 25 | 229 | 4.8 | 14.5 | 0.00 | 0.00 | 0.00 | 84 | 1011.0 |
| 20260903130948 | 25 | 169 | 4.8 | 11.3 | 0.00 | 0.00 | 0.00 | 84 | 1011.0 |
| 20260903130211 | 25 | 225 | 4.8 | 11.3 | 0.00 | 0.00 | 0.00 | 85 | 1011.0 |
| 20260903125710 | 25 | 213 | 4.8 | 11.3 | 0.00 | 0.00 | 0.00 | 85 | 1011.1 |
| 20260903125206 | 25 | 214 | 4.8 | 8.0 | 0.00 | 0.00 | 0.00 | 85 | 1011.1 |
| 20260903124658 | 24 | 177 | 4.8 | 8.0 | 0.00 | 0.00 | 0.00 | 86 | 1011.1 |
| 20260903124151 | 24 | 196 | 3.2 | 8.0 | 0.00 | 0.00 | 0.00 | 86 | 1011.1 |
| 20260903123641 | 24 | 215 | 3.2 | 8.0 | 0.00 | 0.00 | 0.00 | 86 | 1011.1 |
| 20260903123140 | 24 | 207 | 1.6 | 6.4 | 0.00 | 0.00 | 0.00 | 87 | 1011.1 |
| 20260903122635 | 23 | 148 | 1.6 | 6.4 | 0.00 | 0.00 | 0.00 | 87 | 1011.1 |
| 20260903122128 | 23 | 200 | 1.6 | 6.4 | 0.00 | 0.00 | 0.00 | 87 | 1011.1 |
| 20260903121623 | 23 | 219 | 1.6 | 8.0 | 0.00 | 0.00 | 0.00 | 87 | 1011.1 |
| 20260903121113 | 23 | 217 | 1.6 | 8.0 | 0.00 | 0.00 | 0.00 | 87 | 1011.0 |
| 20260903120833 | 23 | 178 | 1.6 | 4.8 | 0.00 | 0.00 | 0.00 | 87 | 1011.0 |
| 20260903120104 | 23 | 191 | 1.6 | 4.8 | 0.00 | 0.00 | 0.00 | 87 | 1011.0 |
| 20260903115640 | 23 | 211 | 1.6 | 4.8 | 0.00 | 0.00 | 0.00 | 87 | 1011.0 |
| 20260903114805 | 23 | 178 | 1.6 | 6.4 | 0.00 | 0.00 | 0.00 | 87 | 1011.0 |
| 20260903114040 | 23 | 191 | 1.6 | 6.4 | 0.00 | 0.00 | 0.00 | 87 | 1010.9 |
| 20260903113535 | 23 | 207 | 1.6 | 6.4 | 0.00 | 0.00 | 0.00 | 87 | 1010.9 |
| 20260903113029 | 23 | 224 | 1.6 | 6.4 | 0.00 | 0.00 | 0.00 | 87 | 1010.9 |
| 20260903112523 | 23 | 180 | 1.6 | 6.4 | 0.00 | 0.00 | 0.00 | 87 | 1010.9 |
| 20260903112015 | 23 | 237 | 0.0 | 6.4 | 0.00 | 0.00 | 0.00 | 87 | 1010.9 |
| 20260903111511 | 23 | 213 | 1.6 | 4.8 | 0.00 | 0.00 | 0.00 | 87 | 1010.9 |
| 20260903111000 | 23 | 219 | 1.6 | 4.8 | 0.00 | 0.00 | 0.00 | 87 | 1010.9 |
| 20260903110458 | 23 | 236 | 1.6 | 6.4 | 0.00 | 0.00 | 0.00 | 87 | 1010.9 |
| 20260903105952 | 23 | 229 | 1.6 | 6.4 | 0.00 | 0.00 | 0.00 | 86 | 1010.8 |
| 20260903105445 | 23 | 221 | 3.2 | 6.4 | 0.00 | 0.00 | 0.00 | 86 | 1010.8 |
| 20260903104940 | 23 | 223 | 3.2 | 8.0 | 0.00 | 0.00 | 0.00 | 86 | 1010.8 |
| 20260903104432 | 23 | 223 | 1.6 | 8.0 | 0.00 | 0.00 | 0.00 | 86 | 1010.8 |
| 20260903104141 | 23 | 234 | 3.2 | 8.0 | 0.00 | 0.00 | 0.00 | 86 | 1010.8 |
| 20260903103407 | 23 | 244 | 3.2 | 9.7 | 0.00 | 0.00 | 0.00 | 86 | 1010.8 |
| 20260903103118 | 23 | 225 | 3.2 | 9.7 | 0.00 | 0.00 | 0.00 | 86 | 1010.8 |
| 20260903102358 | 23 | 194 | 3.2 | 6.4 | 0.00 | 0.00 | 0.00 | 86 | 1010.8 |
| 20260903101859 | 23 | 161 | 3.2 | 9.7 | 0.00 | 0.00 | 0.00 | 86 | 1010.8 |
| 20260903101359 | 23 | 190 | 3.2 | 9.7 | 0.00 | 0.00 | 0.00 | 86 | 1010.8 |
| 20260903100859 | 23 | 226 | 1.6 | 6.4 | 0.00 | 0.00 | 0.00 | 86 | 1010.8 |
| 20260903100358 | 24 | 196 | 1.6 | 4.8 | 0.00 | 0.00 | 0.00 | 86 | 1010.8 |
| 20260903095901 | 24 | 213 | 3.2 | 8.0 | 0.00 | 0.00 | 0.00 | 86 | 1010.8 |
| 20260903095401 | 24 | 224 | 3.2 | 8.0 | 0.00 | 0.00 | 0.00 | 86 | 1010.8 |
| 20260903094857 | 24 | 213 | 1.6 | 6.4 | 0.00 | 0.00 | 0.00 | 86 | 1010.8 |
| 20260903094620 | 24 | 222 | 1.6 | 6.4 | 0.00 | 0.00 | 0.00 | 86 | 1010.8 |
| 20260903093851 | 24 | 213 | 3.2 | 6.4 | 0.00 | 0.00 | 0.00 | 86 | 1010.8 |
| 20260903093347 | 24 | 188 | 3.2 | 9.7 | 0.00 | 0.00 | 0.00 | 86 | 1010.8 |
| 20260903092840 | 24 | 225 | 3.2 | 6.4 | 0.00 | 0.00 | 0.00 | 86 | 1010.7 |
| 20260903092330 | 24 | 215 | 1.6 | 6.4 | 0.00 | 0.00 | 0.00 | 86 | 1010.7 |
| 20260903091825 | 24 | 203 | 1.6 | 4.8 | 0.00 | 0.00 | 0.00 | 86 | 1010.7 |
| 20260903091320 | 24 | 231 | 1.6 | 4.8 | 0.00 | 0.00 | 0.00 | 86 | 1010.4 |
| 20260903091032 | 24 | 216 | 1.6 | 4.8 | 0.00 | 0.00 | 0.00 | 86 | 1010.4 |
| 20260903090308 | 24 | 205 | 1.6 | 4.8 | 0.00 | 0.00 | 0.00 | 86 | 1010.4 |
| 20260903085800 | 24 | 197 | 1.6 | 4.8 | 0.00 | 0.00 | 0.00 | 86 | 1010.4 |
| 20260903085255 | 24 | 200 | 1.6 | 4.8 | 0.00 | 0.00 | 0.00 | 86 | 1010.4 |
| 20260903084750 | 25 | 218 | 1.6 | 4.8 | 0.00 | 0.00 | 0.00 | 86 | 1010.4 |
| 20260903084239 | 25 | 196 | 1.6 | 8.0 | 0.00 | 0.00 | 0.00 | 86 | 1010.4 |
| 20260903083738 | 25 | 212 | 1.6 | 8.0 | 0.00 | 0.00 | 0.00 | 86 | 1010.4 |
| 20260903083225 | 25 | 231 | 1.6 | 8.0 | 0.00 | 0.00 | 0.00 | 86 | 1010.4 |
| 20260903082725 | 25 | 220 | 0.0 | 3.2 | 0.00 | 0.00 | 0.00 | 86 | 1010.4 |
| 20260903082220 | 25 | 194 | 0.0 | 3.2 | 0.00 | 0.00 | 0.00 | 86 | 1010.4 |
| 20260903081714 | 25 | 193 | 1.6 | 4.8 | 0.00 | 0.00 | 0.00 | 86 | 1010.4 |
| 20260903081208 | 25 | 239 | 1.6 | 6.4 | 0.00 | 0.00 | 0.00 | 85 | 1010.4 |
| 20260903080653 | 25 | 229 | 1.6 | 6.4 | 0.00 | 0.00 | 0.00 | 86 | 1010.4 |
| 20260903080157 | 25 | 234 | 3.2 | 8.0 | 0.00 | 0.00 | 0.00 | 86 | 1010.4 |
| 20260903075650 | 25 | 216 | 4.8 | 9.7 | 0.00 | 0.00 | 0.00 | 86 | 1010.4 |
| 20260903075401 | 25 | 230 | 4.8 | 11.3 | 0.00 | 0.00 | 0.00 | 86 | 1010.4 |
| 20260903074637 | 25 | 231 | 4.8 | 11.3 | 0.00 | 0.00 | 0.00 | 86 | 1010.4 |
| 20260903074130 | 25 | 217 | 4.8 | 9.7 | 0.00 | 0.00 | 0.00 | 86 | 1010.3 |
| 20260903073625 | 25 | 227 | 4.8 | 9.7 | 0.00 | 0.00 | 0.00 | 86 | 1010.3 |
| 20260903073119 | 25 | 221 | 3.2 | 8.0 | 0.00 | 0.00 | 0.00 | 86 | 1010.3 |
| 20260903072841 | 25 | 227 | 1.6 | 8.0 | 0.00 | 0.00 | 0.00 | 87 | 1010.4 |
| 20260903072108 | 25 | 211 | 0.0 | 3.2 | 0.00 | 0.00 | 0.00 | 87 | 1010.4 |
| 20260903071600 | 25 | 189 | 0.0 | 1.6 | 0.00 | 0.00 | 0.00 | 87 | 1010.4 |
| 20260903071056 | 25 | 214 | 0.0 | 1.6 | 0.00 | 0.00 | 0.00 | 87 | 1010.3 |
| 20260903070541 | 25 | 209 | 0.0 | 1.6 | 0.00 | 0.00 | 0.00 | 87 | 1010.3 |
| 20260903070044 | 25 | 200 | 0.0 | 0.0 | 0.00 | 0.00 | 0.00 | 87 | 1010.3 |
| 20260903065537 | 25 | 199 | 0.0 | 0.0 | 0.00 | 0.00 | 0.00 | 87 | 1010.3 |
| 20260903065032 | 25 | 219 | 0.0 | 0.0 | 0.00 | 0.00 | 0.00 | 87 | 1010.3 |
| 20260903064524 | 25 | 238 | 0.0 | 0.0 | 0.00 | 0.00 | 0.00 | 87 | 1010.3 |
| 20260903064019 | 25 | 228 | 0.0 | 0.0 | 0.00 | 0.00 | 0.00 | 87 | 1010.3 |
| 20260903063513 | 25 | 207 | 0.0 | 0.0 | 0.00 | 0.00 | 0.00 | 87 | 1010.3 |
| 20260903063229 | 25 | 153 | 0.0 | 0.0 | 0.00 | 0.00 | 0.00 | 87 | 1010.3 |
| 20260903062716 | 25 | 236 | 0.0 | 0.0 | 0.00 | 0.00 | 0.00 | 87 | 1010.3 |
| 20260903061942 | 25 | 214 | 0.0 | 0.0 | 0.00 | 0.00 | 0.00 | 87 | 1010.3 |
| 20260903061430 | 25 | 213 | 0.0 | 1.6 | 0.00 | 0.00 | 0.00 | 87 | 1010.5 |
| 20260903060923 | 25 | 212 | 0.0 | 3.2 | 0.00 | 0.00 | 0.00 | 87 | 1010.5 |
| 20260903060423 | 25 | 219 | 1.6 | 3.2 | 0.00 | 0.00 | 0.00 | 87 | 1010.5 |
| 20260903055923 | 25 | 227 | 1.6 | 6.4 | 0.00 | 0.00 | 0.00 | 87 | 1010.4 |
| 20260903055644 | 25 | 227 | 3.2 | 6.4 | 0.00 | 0.00 | 0.00 | 87 | 1010.4 |
| 20260903054926 | 25 | 238 | 3.2 | 8.0 | 0.00 | 0.00 | 0.00 | 87 | 1010.4 |
| 20260903054423 | 25 | 236 | 3.2 | 8.0 | 0.00 | 0.00 | 0.00 | 86 | 1010.4 |
| 20260903053923 | 25 | 238 | 3.2 | 6.4 | 0.00 | 0.00 | 0.00 | 87 | 1010.4 |
| 20260903053421 | 25 | 228 | 3.2 | 6.4 | 0.00 | 0.00 | 0.00 | 86 | 1010.4 |
| 20260903052920 | 25 | 217 | 3.2 | 6.4 | 0.00 | 0.00 | 0.00 | 86 | 1010.3 |
| 20260903052419 | 25 | 225 | 3.2 | 6.4 | 0.00 | 0.00 | 0.00 | 86 | 1010.3 |
| 20260903051913 | 25 | 223 | 3.2 | 6.4 | 0.00 | 0.00 | 0.00 | 86 | 1010.3 |
| 20260903051409 | 25 | 226 | 3.2 | 6.4 | 0.00 | 0.00 | 0.00 | 86 | 1010.2 |
| 20260903050903 | 25 | 226 | 1.6 | 6.4 | 0.00 | 0.00 | 0.00 | 86 | 1010.2 |
| 20260903050352 | 26 | 213 | 1.6 | 4.8 | 0.00 | 0.00 | 0.00 | 86 | 1010.2 |
| 20260903045850 | 26 | 212 | 0.0 | 4.8 | 0.00 | 0.00 | 0.00 | 86 | 1010.2 |
| 20260903045339 | 26 | 217 | 0.0 | 0.0 | 0.00 | 0.00 | 0.00 | 86 | 1010.2 |
| 20260903044825 | 26 | 204 | 1.6 | 4.8 | 0.00 | 0.00 | 0.00 | 86 | 1010.2 |
| 20260903044313 | 26 | 218 | 3.2 | 8.0 | 0.00 | 0.00 | 0.00 | 86 | 1010.2 |
| 20260903043803 | 26 | 199 | 3.2 | 8.0 | 0.00 | 0.00 | 0.00 | 86 | 1010.2 |
| 20260903043251 | 26 | 159 | 1.6 | 4.8 | 0.00 | 0.00 | 0.00 | 85 | 1010.2 |
| 20260903042737 | 26 | 209 | 3.2 | 9.7 | 0.00 | 0.00 | 0.00 | 85 | 1010.2 |
| 20260903042228 | 26 | 218 | 1.6 | 9.7 | 0.00 | 0.00 | 0.00 | 85 | 1010.2 |
| 20260903041720 | 26 | 195 | 1.6 | 6.4 | 0.00 | 0.00 | 0.00 | 85 | 1010.2 |
| 20260903041213 | 26 | 221 | 3.2 | 6.4 | 0.00 | 0.00 | 0.00 | 85 | 1010.2 |
| 20260903040704 | 26 | 223 | 3.2 | 6.4 | 0.00 | 0.00 | 0.00 | 85 | 1010.2 |
| 20260903040201 | 26 | 187 | 3.2 | 8.0 | 0.00 | 0.00 | 0.00 | 85 | 1010.2 |
| 20260903035656 | 26 | 221 | 1.6 | 6.4 | 0.00 | 0.00 | 0.00 | 85 | 1010.2 |
| 20260903035410 | 26 | 173 | 1.6 | 6.4 | 0.00 | 0.00 | 0.00 | 85 | 1010.2 |
| 20260903034643 | 26 | 231 | 1.6 | 6.4 | 0.00 | 0.00 | 0.00 | 85 | 1010.2 |
| 20260903034137 | 26 | 219 | 3.2 | 6.4 | 0.00 | 0.00 | 0.00 | 85 | 1010.1 |
| 20260903033633 | 26 | 222 | 3.2 | 6.4 | 0.00 | 0.00 | 0.00 | 85 | 1010.1 |
| 20260903033122 | 26 | 225 | 3.2 | 6.4 | 0.00 | 0.00 | 0.00 | 85 | 1010.1 |
| 20260903032620 | 26 | 219 | 1.6 | 6.4 | 0.00 | 0.00 | 0.00 | 85 | 1010.2 |
| 20260903032115 | 26 | 198 | 1.6 | 6.4 | 0.00 | 0.00 | 0.00 | 85 | 1010.2 |
| 20260903031609 | 26 | 220 | 3.2 | 8.0 | 0.00 | 0.00 | 0.00 | 85 | 1010.2 |
| 20260903031103 | 27 | 215 | 3.2 | 8.0 | 0.00 | 0.00 | 0.00 | 85 | 1010.1 |
| 20260903030551 | 27 | 217 | 3.2 | 6.4 | 0.00 | 0.00 | 0.00 | 85 | 1010.1 |
| 20260903030049 | 27 | 232 | 3.2 | 6.4 | 0.00 | 0.00 | 0.00 | 84 | 1010.1 |
| 20260903025544 | 27 | 223 | 1.6 | 4.8 | 0.00 | 0.00 | 0.00 | 84 | 1010.2 |
| 20260903025037 | 27 | 218 | 1.6 | 4.8 | 0.00 | 0.00 | 0.00 | 84 | 1010.2 |
| 20260903024531 | 27 | 200 | 3.2 | 6.4 | 0.00 | 0.00 | 0.00 | 84 | 1010.2 |
| 20260903024021 | 27 | 213 | 3.2 | 8.0 | 0.00 | 0.00 | 0.00 | 84 | 1010.2 |
| 20260903023519 | 27 | 218 | 4.8 | 8.0 | 0.00 | 0.00 | 0.00 | 83 | 1010.2 |
| 20260903023014 | 27 | 227 | 3.2 | 8.0 | 0.00 | 0.00 | 0.00 | 83 | 1010.2 |
| 20260903022507 | 27 | 232 | 3.2 | 8.0 | 0.00 | 0.00 | 0.00 | 83 | 1010.0 |
| 20260903022228 | 27 | 192 | 3.2 | 6.4 | 0.00 | 0.00 | 0.00 | 82 | 1010.0 |
| 20260903021455 | 27 | 217 | 3.2 | 4.8 | 0.00 | 0.00 | 0.00 | 82 | 1010.1 |
| 20260903020951 | 27 | 190 | 3.2 | 8.0 | 0.00 | 0.00 | 0.00 | 82 | 1010.1 |
| 20260903020444 | 27 | 207 | 3.2 | 8.0 | 0.00 | 0.00 | 0.00 | 82 | 1010.1 |
| 20260903015938 | 27 | 167 | 3.2 | 6.4 | 0.00 | 0.00 | 0.00 | 82 | 1010.0 |
| 20260903015432 | 28 | 181 | 1.6 | 6.4 | 0.00 | 0.00 | 0.00 | 82 | 1010.0 |
| 20260903014926 | 28 | 233 | 1.6 | 4.8 | 0.00 | 0.00 | 0.00 | 81 | 1010.0 |
| 20260903014419 | 28 | 188 | 1.6 | 6.4 | 0.00 | 0.00 | 0.00 | 81 | 1010.0 |
| 20260903013909 | 28 | 184 | 1.6 | 6.4 | 0.00 | 0.00 | 0.00 | 81 | 1010.0 |
| 20260903013407 | 28 | 194 | 1.6 | 4.8 | 0.00 | 0.00 | 0.00 | 81 | 1010.0 |
| 20260903013128 | 28 | 219 | 1.6 | 4.8 | 0.00 | 0.00 | 0.00 | 81 | 1009.7 |
| 20260903012354 | 28 | 229 | 1.6 | 9.7 | 0.00 | 0.00 | 0.00 | 80 | 1009.7 |
| 20260903011850 | 28 | 229 | 3.2 | 9.7 | 0.00 | 0.00 | 0.00 | 80 | 1009.7 |
| 20260903011342 | 28 | 214 | 3.2 | 8.0 | 0.00 | 0.00 | 0.00 | 79 | 1009.6 |
| 20260903010837 | 28 | 204 | 3.2 | 8.0 | 0.00 | 0.00 | 0.00 | 79 | 1009.6 |
| 20260903010329 | 29 | 211 | 3.2 | 8.0 | 0.00 | 0.00 | 0.00 | 79 | 1009.6 |
| 20260903005822 | 29 | 176 | 3.2 | 9.7 | 0.00 | 0.00 | 0.00 | 79 | 1009.5 |
| 20260903005322 | 29 | 248 | 3.2 | 9.7 | 0.00 | 0.00 | 0.00 | 78 | 1009.5 |
| 20260903004822 | 29 | 232 | 1.6 | 6.4 | 0.00 | 0.00 | 0.00 | 78 | 1009.5 |
| 20260903004322 | 29 | 169 | 1.6 | 6.4 | 0.00 | 0.00 | 0.00 | 78 | 1009.5 |
| 20260903003822 | 30 | 217 | 3.2 | 9.7 | 0.00 | 0.00 | 0.00 | 78 | 1009.5 |
| 20260903003323 | 30 | 239 | 4.8 | 9.7 | 0.00 | 0.00 | 0.00 | 77 | 1009.5 |
| 20260903002825 | 30 | 192 | 3.2 | 9.7 | 0.00 | 0.00 | 0.00 | 77 | 1009.5 |
| 20260903002320 | 30 | 194 | 3.2 | 9.7 | 0.00 | 0.00 | 0.00 | 76 | 1009.5 |
| 20260903001822 | 30 | 189 | 3.2 | 8.0 | 0.00 | 0.00 | 0.00 | 76 | 1009.5 |
| 20260903001317 | 30 | 230 | 3.2 | 8.0 | 0.00 | 0.00 | 0.00 | 76 | 1009.5 |
| 20260903001030 | 30 | 203 | 3.2 | 8.0 | 0.00 | 0.00 | 0.00 | 75 | 1009.5 |
| 20260903000304 | 31 | 184 | 3.2 | 11.3 | 0.00 | 0.00 | 0.00 | 75 | 1009.5 |
| 20260902235758 | 31 | 206 | 3.2 | 11.3 | 0.00 | 0.00 | 0.00 | 75 | 1009.7 |
| 20260902235254 | 31 | 207 | 3.2 | 8.0 | 0.00 | 0.00 | 0.00 | 74 | 1009.7 |
| 20260902235226 | 31 | 208 | 3.2 | 8.0 | 0.00 | 0.00 | 0.00 | 74 | 1009.7 |
| 20260902234457 | 31 | 236 | 4.8 | 12.9 | 0.00 | 0.00 | 0.00 | 74 | 1009.7 |
| 20260902233735 | 31 | 216 | 4.8 | 12.9 | 0.00 | 0.00 | 0.00 | 74 | 1009.7 |
| 20260902233710 | 31 | 227 | 3.2 | 12.9 | 0.00 | 0.00 | 0.00 | 74 | 1009.7 |
| 20260902232722 | 31 | 210 | 4.8 | 9.7 | 0.00 | 0.00 | 0.00 | 74 | 1009.8 |
| 20260902232704 | 32 | 196 | 4.8 | 11.3 | 0.00 | 0.00 | 0.00 | 73 | 1009.8 |
| 20260902231705 | 32 | 218 | 4.8 | 11.3 | 0.00 | 0.00 | 0.00 | 73 | 1009.8 |
| 20260902231206 | 32 | 222 | 4.8 | 12.9 | 0.00 | 0.00 | 0.00 | 72 | 1009.7 |
| 20260902230700 | 32 | 215 | 4.8 | 14.5 | 0.00 | 0.00 | 0.00 | 72 | 1009.7 |
| 20260902230153 | 32 | 215 | 4.8 | 14.5 | 0.00 | 0.00 | 0.00 | 71 | 1009.7 |
| 20260902225644 | 32 | 214 | 6.4 | 14.5 | 0.00 | 0.00 | 0.00 | 71 | 1009.7 |
| 20260902225141 | 32 | 225 | 4.8 | 14.5 | 0.00 | 0.00 | 0.00 | 70 | 1009.7 |
| 20260902224634 | 32 | 148 | 6.4 | 14.5 | 0.00 | 0.00 | 0.00 | 70 | 1009.7 |
| 20260902224347 | 33 | 171 | 6.4 | 11.3 | 0.00 | 0.00 | 0.00 | 69 | 1009.8 |
| 20260902224110 | 33 | 209 | 6.4 | 12.9 | 0.00 | 0.00 | 0.00 | 70 | 1009.8 |
| 20260902223116 | 33 | 132 | 6.4 | 16.1 | 0.00 | 0.00 | 0.00 | 69 | 1009.8 |
| 20260902222610 | 33 | 200 | 6.4 | 16.1 | 0.00 | 0.00 | 0.00 | 68 | 1009.8 |
| 20260902222104 | 33 | 227 | 6.4 | 12.9 | 0.00 | 0.00 | 0.00 | 68 | 1009.8 |
| 20260902221605 | 33 | 232 | 6.4 | 12.9 | 0.00 | 0.00 | 0.00 | 68 | 1009.8 |
| 20260902221324 | 33 | 218 | 4.8 | 14.5 | 0.00 | 0.00 | 0.00 | 67 | 1009.8 |
| 20260902220604 | 33 | 224 | 4.8 | 14.5 | 0.00 | 0.00 | 0.00 | 68 | 1009.8 |
| 20260902220104 | 33 | 204 | 6.4 | 14.5 | 0.00 | 0.00 | 0.00 | 68 | 1009.8 |
| 20260902215604 | 33 | 238 | 6.4 | 17.7 | 0.00 | 0.00 | 0.00 | 66 | 1010.0 |
| 20260902215326 | 33 | 200 | 8.0 | 17.7 | 0.00 | 0.00 | 0.00 | 66 | 1010.0 |
| 20260902215044 | 33 | 233 | 8.0 | 17.7 | 0.00 | 0.00 | 0.00 | 65 | 1010.0 |
| 20260902214104 | 33 | 201 | 6.4 | 17.7 | 0.00 | 0.00 | 0.00 | 64 | 1010.1 |
| 20260902213603 | 33 | 232 | 6.4 | 19.3 | 0.00 | 0.00 | 0.00 | 65 | 1010.1 |
| 20260902213548 | 34 | 146 | 9.7 | 22.5 | 0.00 | 0.00 | 0.00 | 64 | 1010.1 |
| 20260902212603 | 33 | 236 | 11.3 | 22.5 | 0.00 | 0.00 | 0.00 | 63 | 1010.1 |
| 20260902212101 | 34 | 239 | 9.7 | 17.7 | 0.00 | 0.00 | 0.00 | 63 | 1010.1 |